Location: �perlecques
(50.8057°N, 2.1521°E)
Time: 23:26:37
(UTC+00:00)

VELOX 1 - Pass Details

Date: 27 September 2021
Orbit: 627 x 642 km, 98.3° (Epoch: 21 October)

Event Time Altitude Azimuth Distance (km) Brightness Sun altitude
Rises 18:19:38 0° 359° (N) 2,928 ? -7.4°
Reaches altitude 10° 18:23:09 10° 329° (NNW) 2,016 ? -8.0°
Maximum altitude 18:24:48 12° 307° (NW) 1,881 ? -8.2°
Drops below altitude 10° 18:26:27 10° 284° (WNW) 2,012 ? -8.5°
Sets 18:29:58 0° 254° (WSW) 2,917 ? -9.0°
